Weather observations for the past three days for
Eureka Airport ASOS
Metric (Imperial)
Date Time (pdt) Wind (kph) Vis. (km) Weather Sky Cond. Temperature (ºC) Relative Humidity Wind Chill (°C) Heat Index (°C) Pressure Precipitation (cm)
Air Dwpt 6 hour altimeter (cm) sea level (mb) 1 hr 3 hr 6 hr
Max. Min.
07 03:53 S 9 0.00 NULL NULL 5.6 -2.8 55% 4 76.63 1016.3
07 02:53 S 15 0.00 NULL NULL 6.7 -3.3 49% 4 76.63 1016.3
07 01:53 SW 15 0.00 NULL NULL 6.7 -2.2 53% 4 76.66 1016.7
07 00:53 S 19 0.00 NULL NULL 6.7 -2.2 53% 4 76.66 1017.1
06 23:53 S 15 0.00 NULL NULL 7.8 -2.8 47% 6 76.66 1017.4
06 22:53 S 13 0.00 NULL NULL 7.8 -1.7 20.6 7.2 51% 6 76.68 1017.8
06 21:53 SE 11 0.00 NULL NULL 7.8 -0.6 56% 6 76.71 1018.3
06 20:53 S 11 0.00 NULL NULL 10.6 -0.6 46% 76.66 1017.5
06 19:53 W 7 0.00 NULL NULL 13.3 -1.1 37% 76.61 1016.8
06 18:53 NE 15 0.00 NULL NULL 18.3 -3.9 22% 76.58 1016.1
06 17:53 N 13 G 30 0.00 NULL NULL 19.4 -5.6 18% 76.56 1016.1
06 16:53 Vrbl 9 G 31 0.00 NULL NULL 20 -5.6 20.6 14.4 17% 76.56 1016.0
06 15:53 N 15 0.00 NULL NULL 20 -5 18% 76.58 1016.0
06 14:53 Vrbl 7 G 28 0.00 NULL NULL 18.9 -5 19% 76.61 1016.9
06 13:53 N 22 G 31 0.00 NULL NULL 18.9 -2.8 23% 76.63 1017.0
06 12:53 Vrbl 9 G 33 0.00 NULL NULL 17.2 0 31% 76.63 1017.2
06 11:53 NE 11 G 30 0.00 NULL NULL 15.6 1.1 38% 76.66 1017.5
06 10:53 NE 9 0.00 NULL NULL 14.4 2.2 15 1.7 44% 76.66 1017.6
06 09:53 N 15 0.00 NULL NULL 13.3 4.4 55% 76.61 1017.2
06 08:53 Calm 0.00 NULL NULL 11.1 3.9 61% 76.58 1017.2
06 07:53 Calm 0.00 NULL NULL 8.3 6.1 86% 76.56 1017.0
06 06:53 S 6 0.00 NULL NULL 5 3.9 93% 76.5 1016.9
06 05:53 S 9 0.00 NULL NULL 2.2 1.7 97% -0 76.43 1016.1
06 04:53 SE 9 0.00 NULL NULL 1.7 1.1 5.6 1.7 96% -1 76.4 1015.4
06 03:53 Calm 0.00 NULL NULL 3.3 2.2 93% 76.35 1014.3
06 02:53 S 15 0.00 NULL NULL 2.2 1.7 97% -1 76.3 1013.7
06 01:53 S 11 0.00 NULL NULL 3.3 2.8 97% 1 76.28 1013.4
06 00:53 W 6 0.00 NULL NULL 4.4 3.9 97% 76.28 1013.4
05 23:53 S 13 0.00 NULL NULL 5 4.4 96% 2 76.23 1012.7
05 22:53 S 7 0.00 NULL NULL 5 4.4 13.3 5 96% 4 76.23 1012.7 0.13
05 21:53 S 7 0.00 NULL NULL 6.1 5 93% 5 76.17 1011.8
05 20:53 SE 11 0.00 NULL NULL 6.7 6.1 96% 5 76.15 1011.8
05 19:53 W 7 0.00 NULL NULL 8.3 7.2 93% 7 76.1 1011.0 0.03 0.13
05 18:53 NW 13 0.00 NULL NULL 8.9 7.2 89% 7 76.07 1010.9 0.1
05 17:53 E 11 G 30 0.00 NULL NULL 11.1 4.4 64% 75.97 1009.5
05 16:53 N 13 0.00 NULL NULL 13.3 1.1 15 10.6 44% 75.95 1008.3
05 15:53 NE 11 0.00 NULL NULL 13.3 0 40% 75.95 1008.0
05 14:53 SW 11 0.00 NULL NULL 13.9 0 39% 75.97 1008.2
05 13:53 W 13 0.00 NULL NULL 12.8 2.2 49% 76.02 1009.1
05 12:53 Vrbl 6 0.00 NULL NULL 12.2 2.2 51% 76 1008.9
05 11:53 N 13 0.00 NULL NULL 11.1 3.3 59% 76 1009.3
05 10:53 N 9 0.00 NULL NULL 11.7 3.9 11.7 3.3 59% 75.97 1008.6
05 09:53 N 13 0.00 NULL NULL 10 5 71% 8 75.97 1009.1
05 08:53 N 11 0.00 NULL NULL 8.9 5.6 80% 7 75.95 1008.7
05 07:53 Calm 0.00 NULL NULL 7.2 4.4 83% 75.92 1008.7
05 06:53 S 7 0.00 NULL NULL 5 3.9 93% 4 75.9 1008.8
05 05:53 Calm 0.00 NULL NULL 3.3 2.8 97% 75.87 1008.4
05 04:53 Calm 0.00 NULL NULL 4.4 3.9 7.2 4.4 97% 75.84 1007.7
05 03:53 Calm 0.00 NULL NULL 5 4.4 96% 75.82 1006.2
05 02:53 S 9 0.00 NULL NULL 6.1 5 93% 4 75.84 1006.1
05 01:53 NE 11 0.00 NULL NULL 6.1 5 93% 4 75.87 1006.9
05 00:53 S 6 0.00 NULL NULL 6.7 5.6 93% 75.9 1006.3
04 23:53 W 6 0.00 NULL NULL 6.1 5 93% 75.87 1006.0
04 22:53 SW 7 0.00 NULL NULL 7.2 5.6 10.6 6.7 90% 6 75.87 1006.1 0.2
04 21:53 NE 11 0.00 NULL NULL 6.7 5.6 93% 5 75.9 1006.7 0.03
04 20:53 SW 7 0.00 NULL NULL 7.2 5 86% 6 75.92 1007.5
04 19:53 SW 13 0.00 NULL NULL 7.2 5 86% 5 75.84 1007.1 0.03 0.18
04 18:53 W 13 0.00 NULL NULL 7.8 6.1 89% 6 75.87 1007.7 0.15
04 17:53 W 13 G 31 0.00 NULL NULL 8.9 6.1 83% 7 75.84 1007.5
04 16:53 N 13 0.00 NULL NULL 10 5.6 18.9 10 74% 8 75.79 1006.6 0.13 0.13
04 15:53 N 17 0.00 NULL NULL 15.6 0.6 36% 75.72 1004.4
04 14:53 SW 24 G 37 0.00 NULL NULL 15.6 0.6 36% 75.77 1005.5
04 13:53 E 13 0.00 NULL NULL 14.4 -1.1 35% 75.82 1006.3
04 12:53 S 35 G 54 0.00 Breezy NULL 17.2 -1.1 29% 75.77 1004.6
04 11:53 S 15 G 35 0.00 NULL NULL 17.8 -3.3 24% 75.77 1005.1
04 10:53 Vrbl 6 0.00 NULL NULL 16.7 -1.1 16.7 6.7 30% 75.82 1005.5
04 09:53 S 7 0.00 NULL NULL 15 -0.6 35% 75.84 1005.6
04 08:53 S 9 0.00 NULL NULL 13.9 -1.1 36% 75.87 1005.8
04 07:53 SE 11 0.00 NULL NULL 10.6 0.6 50% 75.95 1007.1
04 06:53 SW 9 0.00 NULL NULL 8.9 0 54% 8 75.97 1007.0
04 05:53 NE 7 0.00 NULL NULL 6.7 -0.6 60% 6 75.95 1006.9
04 04:53 SW 7 0.00 NULL NULL 6.7 -1.1 8.3 2.8 58% 6 75.97 1006.7
Date Time (pdt) Wind (kph) Vis. (km) Weather Sky Cond. Air Dwpt Max. Min. Relative Humidity Wind Chill (°C) Heat Index (°C) altimeter (cm) sea level (mb) 1 hr 3 hr 6 hr
6 hour
Temperature (ºC) Pressure Precipitation (cm)